ATLAS 5 CENTAUR DEB, 49363

Orbit data source: Space-Track

ATLAS 5 CENTAUR DEB, 49363 is space debris in HEO originally from a launch on Wed, 17 Oct 2018 UTC launched from the Air Force Eastern Test Range (AFETR). Debris objects in space refer to the collection of defunct objects orbiting the Earth. Examples of debris include non-operational satellites, rocket bodies, and fragments generated from explosions, collisions, or faulty payload assembly.

Loading next visibility...
Identifier
49363, 2018-079FQ
Orbit
HEO
Country
Flag of USUS
Related business
Flag of USUnited Launch Alliance/Lockheed Martin (US)
Manufacturer
ULA Decatur
Mission
Spacecraft
Bus & Motor
Unknown
Mass
Unknown
Launch date (UTC)
2018-10-17 (8 years ago)
Launch vehicle
Unknown
Launch site
Air Force Eastern Test Range (AFETR)
Object type
Payload
Rocket body
Debris
Shape & HBR
Unknown shape, 1.1 m
Radar Cross Section
RCS unknown

Expand to show TLE details & history
Last TLE update: 4 days ago

TLE from 4 days ago
0 ATLAS 5 CENTAUR DEB
1 49363U 18079FQ  26123.09392758 -.00000133  00000-0  00000-0 0  9995
2 49363  13.0741  37.8179 4879191 327.0363  10.4025  1.83692796 31378
Epoch: 2026-05-03T02:15Z
TLE epoch observation values (Epoch: 2026-05-03T02:15:15.342Z)
Latitude
-0.00009°
Longitude
142.94895°
Altitude
8,830.789 km
Speed
6.186 km/s
True Right ascension
02h 31m 03s
True Declination
0° 00' 00"
Sunlit
Object was in daylight at epoch
Visualization orbit readout
Latitude
Unknown
Longitude
Unknown
Altitude
Unknown
Speed
Unknown
Apparent Right ascension
Unknown
Apparent Declination
Unknown
Sunlit
N/A
Visualization observer readout
Local Sidereal Time
01:39:50
Azimuth
Unknown
Elevation
Unknown
Doppler factor
Unknown
Orbital elements
Apogee altitude
35,528.887 km
Perigee altitude
8,044.547 km
Semi-major axis
28,164.854 km
Eccentricity
0.48792
Inclination
13.0741°
RAAN
37.8179°
Arg. of periapsis
327.0363°
True anomaly
33.35047°
Mean anomaly
10.4025°
Eccentric anomaly
19.93335°
Mean motion
0.45918 °/min
Orbital period
784.01 mins
BSTAR
0
Loading maneuver chart data...
Computing Atmospheric mass density...

Documentation

Showing up to 5 results
|